Estación de Los Angeles

Ultimos registro cada 15 minutos 57
Estación Fecha / Hora Temperatura Humedad Lluvia Velocidad Dirección Radiación Presion
57 Los Angeles 10-05-2026 14:00 19,2 48,3 0 2 139 593,1 1005,7
56 Los Angeles 10-05-2026 13:45 18,5 48,2 0 2,3 132 609,4 1006
55 Los Angeles 10-05-2026 13:30 17,8 46,5 0 3 139 624,4 1006,1
54 Los Angeles 10-05-2026 13:15 17,7 47,6 0 3 135 634,4 1006,4
53 Los Angeles 10-05-2026 13:00 17,3 48,7 0 2,7 150 640,6 1006,7
52 Los Angeles 10-05-2026 12:45 16,8 50,1 0 2,7 138 640,6 1006,9
51 Los Angeles 10-05-2026 12:30 16,6 50,1 0 3 149 636,9 1007
50 Los Angeles 10-05-2026 12:15 15,9 51,1 0 3 140 633,1 1007,2
49 Los Angeles 10-05-2026 12:00 15,7 52,2 0 2,7 138 623,1 1007,3
48 Los Angeles 10-05-2026 11:45 15,2 50,1 0 3 147 606,9 1007,7
47 Los Angeles 10-05-2026 11:30 15,3 50,5 0 3 136 588,1 1007,8
46 Los Angeles 10-05-2026 11:15 15 50,3 0 2,7 136 566,9 1007,9
45 Los Angeles 10-05-2026 11:00 14,7 51,5 0 3,3 136 541,9 1008
44 Los Angeles 10-05-2026 10:45 14,3 52 0 2,7 135 514,4 1008
43 Los Angeles 10-05-2026 10:30 14,6 51,4 0 2,3 138 481,9 1007,8
42 Los Angeles 10-05-2026 10:15 13,9 50,7 0 3 138 446,9 1007,8
41 Los Angeles 10-05-2026 10:00 14 50,7 0 2,7 131 408,1 1007,8
40 Los Angeles 10-05-2026 09:45 13,6 51,2 0 3 136 366,9 1007,9
39 Los Angeles 10-05-2026 09:30 13,5 50,8 0 2,3 129 324,4 1007,9
38 Los Angeles 10-05-2026 09:15 12,9 50,2 0 2,7 128 279,4 1007,9
37 Los Angeles 10-05-2026 09:00 13,1 49 0 2,3 126 233,1 1007,8
36 Los Angeles 10-05-2026 08:45 12,4 49,9 0 2,3 125 185,6 1007,8
35 Los Angeles 10-05-2026 08:30 12 50,6 0 2 133 19,4 1008
34 Los Angeles 10-05-2026 08:15 11,7 51,6 0 2 133 38,1 1008
33 Los Angeles 10-05-2026 08:00 10,7 53,5 0 1,3 129 43,1 1008,1
32 Los Angeles 10-05-2026 07:45 10,4 54 0 1,3 124 5,6 1008,1
31 Los Angeles 10-05-2026 07:30 10,6 53,7 0 1,7 111 0,6 1008
30 Los Angeles 10-05-2026 07:15 10,3 54,6 0 1,7 121 0,6 1008
29 Los Angeles 10-05-2026 07:00 10,8 53,4 0 2,3 121 0,6 1008
28 Los Angeles 10-05-2026 06:45 10,9 53,4 0 2 131 0,6 1008
27 Los Angeles 10-05-2026 06:30 10,5 54,9 0 1,7 117 0,6 1008
26 Los Angeles 10-05-2026 06:15 10,3 55,7 0 2 119 0,6 1007,9
25 Los Angeles 10-05-2026 06:00 10,3 56,1 0 2,3 119 0,6 1007,7
24 Los Angeles 10-05-2026 05:45 10,3 56,6 0 2,3 124 0,6 1007,7
23 Los Angeles 10-05-2026 05:30 10,6 55,6 0 2,3 128 0,6 1007,6
22 Los Angeles 10-05-2026 05:15 10,5 56,3 0 2 117 0,6 1007,6
21 Los Angeles 10-05-2026 05:00 10,7 56 0 2,3 124 0,6 1007,6
20 Los Angeles 10-05-2026 04:45 10,7 56 0 2,7 126 0,6 1007,6
19 Los Angeles 10-05-2026 04:30 10,7 56 0 3 132 0,6 1007,6
18 Los Angeles 10-05-2026 04:15 10,5 57,8 0 2,7 133 0,6 1007,7
17 Los Angeles 10-05-2026 04:00 10,3 59 0 2,3 132 0,6 1007,8
16 Los Angeles 10-05-2026 03:45 10,3 59,2 0 2,3 135 0,6 1008,1
15 Los Angeles 10-05-2026 03:30 10,3 60 0 2,3 132 0,6 1008,3
14 Los Angeles 10-05-2026 03:15 10,4 60 0 2,3 135 0,6 1008,5
13 Los Angeles 10-05-2026 03:00 10,4 60,3 0 2,7 131 0,6 1008,7
12 Los Angeles 10-05-2026 02:45 10,7 59,5 0 2,3 128 0,6 1008,6
11 Los Angeles 10-05-2026 02:30 10,9 58,8 0 3 121 0,6 1008,8
10 Los Angeles 10-05-2026 02:15 11,2 57,1 0 2,7 131 0,6 1008,8
9 Los Angeles 10-05-2026 02:00 11,4 55,6 0 2,3 129 0,6 1008,8
8 Los Angeles 10-05-2026 01:45 11,7 54 0 2,7 129 0,6 1008,9
7 Los Angeles 10-05-2026 01:30 11,7 53,6 0 2,7 129 0,6 1008,9
6 Los Angeles 10-05-2026 01:15 11,6 54,4 0 2,7 119 0,6 1008,9
5 Los Angeles 10-05-2026 01:00 11,6 54,6 0 2,3 133 0,6 1009
4 Los Angeles 10-05-2026 00:45 11,8 53,6 0 2,7 136 0,6 1009,1
3 Los Angeles 10-05-2026 00:30 11,8 53,5 0 2,7 140 0,6 1009,3
2 Los Angeles 10-05-2026 00:15 12 53 0 3 136 0,6 1009,4
1 Los Angeles 10-05-2026 00:00 12,2 52 0 3,3 143 0,6 1009,4